sat.trackr.live / text

‹ back to catalog

STARLINK-4308

NORAD 53061 · 2022-077U

PAYLOAD ACTIVE UNKNOWN

§ Identity

Operator
Country
US
Launch date
2022-07-11
Launch site
AFWTR
Launch vehicle
Mass (kg)
RCS (m²)

Purposes: comms

External: N2YO · Heavens-Above · Gunter

§ Orbital elements

Epoch: 2026-05-25T00:39:23.874624Z

Period
95.64 min
Inclination
97.4499°
Eccentricity
0.0001572
Mean motion
15.05652679 rev/d
Perigee alt
548.4 km
Apogee alt
550.6 km
Semi-major
6,927.6 km
B*
-8.3904e-5
RAAN
324.9551°
Arg perigee
98.5772°
Mean anomaly
261.5633°
Rev number
21,239

§ Raw data

STARLINK-43081 53061U 22077U   26145.02735966 -.00001269  00000+0 -83904-4 0  99962 53061  97.4499 324.9551 0001572  98.5772 261.5633 15.05652679212390

JSON: /api/v1/satellites/53061 · /tle

For live sub-satellite position, see the globe view (requires WebGL).

§ Visibility from observer

Set your observer location to see the next 7 days of passes ≥ 10°. The values pass through the URL so the page stays shareable.

No JS? Fill the form by hand. The geolocation button needs JavaScript.